Weather History for Missoula, MT

Change the Weather History Date:

Saturday, April 13, 2013

  Actual Average Record
Temperature  
Mean Temperature 40 °F 45 °F  
Max Temperature 47 °F 58 °F 79 °F (1904)
Min Temperature 32 °F 32 °F 21 °F (1970)
Degree Days  
Heating Degree Days 25 20  
Month to date heating degree days 264 274  
Since 1 July heating degree days 6080 6457  
Cooling Degree Days 0 0  
Month to date cooling degree days 0 0  
Year to date cooling degree days 0 0  
Moisture  
Dew Point 28 °F    
Average Humidity 64    
Maximum Humidity 92    
Minimum Humidity 36    
Precipitation  
Precipitation 0.02 in 0.04 in 0.67 in (2010)
Month to date precipitation 0.19 0.52  
Year to date precipitation 2.25 3.07  
Snow  
Snow T in - - ()
Month to date snowfall T  
Year to date snowfall 22.6  
Since 1 July snowfall 43.7  
Snow Depth 0.00 in    
Sea Level Pressure  
Sea Level Pressure 29.65 in    
Wind  
Wind Speed 11 mph (WNW)    
Max Wind Speed 29 mph    
Max Gust Speed 40 mph    
Visibility 8 miles    
Events Snow    
T = Trace of Precipitation, MM = Missing Value Source: NWS Daily Summary

Daily Weather History Graph

Daily Weather History Graph

Search for Another Location

Airport:

Trip Planner

Search our weather history database for the weather conditions in past years. The results will help you decide how hot, cold, wet, or windy it might be!

Date:

Astronomy

Apr. 13, 2013 Rise Set
Actual Time 6:51 AM MDT 8:22 PM MDT
Civil Twilight 6:20 AM MDT 8:54 PM MDT
Nautical Twilight 5:41 AM MDT 9:33 PM MDT
Astronomical Twilight 5:00 AM MDT 10:14 PM MDT
Moon 8:35 AM MDT (4/13) No Moon Set
Length of Visible Light 14h 34m
Length of Day
13h 30m
Waxing Crescent, 11% of the Moon is Illuminated
Apr 13
Waxing Crescent
Apr 18
First Quarter
Apr 25
Full
May 2
Last Quarter
May 9
New

Hourly Weather History & Observations

Time (MDT) Temp. Windchill Dew Point Humidity Pressure Visibility Wind Dir Wind Speed Gust Speed Precip Events Conditions
12:53 AM 46.9 °F - 30.0 °F 52% 29.57 in 10.0 mi North 5.8 mph - N/A   Overcast
1:53 AM 46.0 °F 40.6 °F 33.1 °F 61% 29.56 in 10.0 mi West 11.5 mph - N/A   Overcast
2:53 AM 45.0 °F 40.6 °F 35.1 °F 68% 29.55 in 10.0 mi WSW 8.1 mph 17.3 mph N/A   Overcast
3:53 AM 44.1 °F 39.5 °F 36.0 °F 73% 29.53 in 10.0 mi South 8.1 mph - 0.00 in   Overcast
4:32 AM 41.0 °F 38.0 °F 37.4 °F 87% 29.52 in 10.0 mi NW 4.6 mph - N/A   Overcast
4:53 AM 41.0 °F 33.9 °F 33.1 °F 73% 29.53 in 10.0 mi WNW 12.7 mph - N/A   Mostly Cloudy
5:53 AM 37.9 °F 34.4 °F 35.1 °F 89% 29.53 in 10.0 mi WNW 4.6 mph - N/A   Mostly Cloudy
6:53 AM 37.9 °F 31.5 °F 28.9 °F 70% 29.53 in 10.0 mi West 9.2 mph - N/A   Clear
7:53 AM 39.9 °F - 28.0 °F 63% 29.55 in 10.0 mi Calm Calm - N/A   Mostly Cloudy
8:53 AM 39.0 °F 29.0 °F 26.1 °F 60% 29.56 in 10.0 mi West 20.7 mph 26.5 mph N/A   Overcast
9:04 AM 37.4 °F 28.5 °F 28.4 °F 70% 29.55 in 9.0 mi West 15.0 mph - N/A   Overcast
9:11 AM 35.6 °F 27.5 °F 30.2 °F 81% 29.55 in 1.8 mi West 11.5 mph 24.2 mph 0.00 in Snow Light Snow
9:17 AM 35.6 °F 27.1 °F 32.0 °F 87% 29.55 in 10.0 mi West 12.7 mph - 0.01 in Snow Light Snow
9:34 AM 37.4 °F 33.8 °F 33.8 °F 87% 29.55 in 10.0 mi WNW 4.6 mph - 0.01 in   Overcast
9:53 AM 41.0 °F 35.2 °F 27.0 °F 57% 29.57 in 10.0 mi West 9.2 mph 17.3 mph 0.01 in   Scattered Clouds
10:53 AM 42.1 °F 32.3 °F 21.0 °F 43% 29.59 in 10.0 mi West 24.2 mph 31.1 mph N/A   Scattered Clouds
11:36 AM 37.4 °F 28.2 °F 26.6 °F 65% 29.61 in 10.0 mi NNW 16.1 mph 21.9 mph N/A   Mostly Cloudy
11:49 AM 37.4 °F 28.9 °F 26.6 °F 65% 29.61 in 9.0 mi NNW 13.8 mph 24.2 mph 0.00 in Snow Light Snow
11:53 AM 39.9 °F 32.1 °F 28.0 °F 63% 29.63 in 9.0 mi NNW 13.8 mph 21.9 mph 0.00 in   Mostly Cloudy
12:00 PM 39.2 °F 31.6 °F 26.6 °F 61% 29.60 in 9.0 mi WNW 12.7 mph 21.9 mph N/A   Mostly Cloudy
12:53 PM 39.9 °F - 23.0 °F 51% 29.64 in 10.0 mi Calm Calm - N/A   Overcast
1:28 PM 42.8 °F 38.0 °F 21.2 °F 42% 29.62 in 10.0 mi NW 8.1 mph - N/A   Overcast
1:53 PM 42.1 °F 33.1 °F 18.0 °F 38% 29.64 in 10.0 mi NW 20.7 mph 24.2 mph N/A   Overcast
2:53 PM 43.0 °F 33.8 °F 19.0 °F 38% 29.66 in 10.0 mi WNW 23.0 mph 34.5 mph 0.00 in   Scattered Clouds
3:32 PM 42.8 °F 36.6 °F 21.2 °F 42% 29.65 in 10.0 mi WNW 11.5 mph 20.7 mph 0.00 in   Scattered Clouds
3:53 PM 39.9 °F 30.5 °F 23.0 °F 51% 29.70 in 6.0 mi WNW 19.6 mph 34.5 mph 0.00 in   Unknown
4:53 PM 44.1 °F 35.4 °F 19.0 °F 37% 29.69 in 10.0 mi West 21.9 mph 27.6 mph 0.00 in   Mostly Cloudy
5:53 PM 41.0 °F 32.5 °F 19.4 °F 42% 29.68 in 10.0 mi West 17.3 mph 27.6 mph N/A   Overcast
6:53 PM 37.9 °F 29.2 °F 21.9 °F 53% 29.75 in 10.0 mi WNW 15.0 mph - N/A   Overcast
7:53 PM 35.1 °F 27.4 °F 26.1 °F 70% 29.77 in 10.0 mi NNW 10.4 mph - N/A   Overcast
8:42 PM 33.8 °F 25.8 °F 28.4 °F 81% 29.74 in 5.0 mi NW 10.4 mph - 0.00 in Snow Light Snow
8:53 PM 34.0 °F 27.2 °F 28.0 °F 79% 29.80 in 7.0 mi NNW 8.1 mph - 0.00 in Snow Light Snow
9:53 PM 33.1 °F 28.7 °F 28.9 °F 85% 29.81 in 10.0 mi West 4.6 mph - 0.00 in   Overcast
10:28 PM 33.8 °F - 30.2 °F 87% 29.76 in 5.0 mi Calm Calm - 0.00 in Snow Light Snow
10:53 PM 33.1 °F - 30.0 °F 89% 29.82 in 6.0 mi Calm Calm - 0.00 in Snow Light Snow
11:03 PM 33.8 °F - 30.2 °F 87% 29.77 in 3.0 mi Calm Calm - 0.00 in Snow Light Snow
11:12 PM 33.8 °F - 30.2 °F 87% 29.77 in 2.5 mi Calm Calm - 0.00 in Snow Light Snow
11:23 PM 32.0 °F 28.7 °F 30.2 °F 93% 29.77 in 2.0 mi NW 3.5 mph - 0.01 in Snow Light Snow
11:46 PM 32.0 °F 27.5 °F 30.2 °F 93% 29.77 in 4.0 mi West 4.6 mph - 0.01 in Snow Light Snow
11:53 PM 32.0 °F 28.7 °F 30.0 °F 92% 29.83 in 4.0 mi West 3.5 mph - 0.01 in Snow Light Snow